Location: Baia Mare
(47.6567°N, 23.5850°E)
Time: 22:37:44
(UTC+03:00)

ISS - Pass Details

Date: 13 September 2019
Orbit: 411 x 421 km, 51.6° (Epoch: 19 September)

Event Time Altitude Azimuth Distance (km) Brightness Sun altitude
Exits shadow 04:57:43 86° 57° (ENE) 421 -3.9 -20.1°
Drops below altitude 10° 05:01:01 10° 113° (ESE) 1,489 -0.5 -19.7°
Sets 05:03:07 0° 114° (ESE) 2,352 0.6 -19.4°
